Change the Weather History Date:

Tuesday, June 3, 2014

  Actual Average Record
Temperature  
Mean Temperature 65 °F -  
Max Temperature 75 °F 69 °F 87 °F (2011)
Min Temperature 55 °F 50 °F 39 °F (1998)
Growing Degree Days 15 (Base 50)    
Moisture  
Dew Point 53 °F    
Average Humidity 69    
Maximum Humidity 88    
Minimum Humidity 41    
Precipitation  
Precipitation 0.00 in - - ()
Sea Level Pressure  
Sea Level Pressure 29.89 in    
Wind  
Wind Speed 11 mph (West)    
Max Wind Speed 18 mph    
Max Gust Speed 28 mph    
Visibility 10 miles    
Events      
Averages and records for this station are not official NWS values.
T = Trace of Precipitation, MM = Missing Value Source: NWS Daily Summary

Daily Weather History Graph

Daily Weather History Graph

Search for Another Location

Airport or City:

Trip Planner

Search our weather history database for the weather conditions in past years. The results will help you decide how hot, cold, wet, or windy it might be!

Date:

Astronomy

Jun. 03, 2014 Rise Set
Actual Time 5:27 AM CDT 8:54 PM CDT
Civil Twilight 4:51 AM CDT 9:31 PM CDT
Nautical Twilight 4:03 AM CDT 10:19 PM CDT
Astronomical Twilight 3:01 AM CDT 11:21 PM CDT
Moon 11:01 AM CDT (6/3) 12:13 AM CDT (6/3)
Length of Visible Light 16h 40m
Length of Day
15h 26m
Waxing Crescent, 30% of the Moon is Illuminated
Jun 3
Waxing Crescent
Jun 5
First Quarter
Jun 12
Full
Jun 19
Last Quarter
Jun 27
New

Hourly Weather History & Observations

Time (CDT) Temp. Dew Point Humidity Pressure Visibility Wind Dir Wind Speed Gust Speed Precip Events Conditions
12:14 AM 62.6 °F 51.8 °F 68% 29.84 in 10.0 mi WNW 17.3 mph 27.6 mph N/A   Scattered Clouds
12:34 AM 60.8 °F 48.2 °F 63% 29.85 in 10.0 mi WNW 17.3 mph 27.6 mph N/A   Clear
12:54 AM 60.8 °F 50.0 °F 68% 29.86 in 10.0 mi West 16.1 mph 24.2 mph N/A   Clear
1:14 AM 60.8 °F 48.2 °F 63% 29.86 in 10.0 mi West 18.4 mph 24.2 mph N/A   Clear
1:34 AM 60.8 °F 50.0 °F 68% 29.87 in 10.0 mi WNW 13.8 mph 23.0 mph N/A   Clear
1:54 AM 60.8 °F 50.0 °F 68% 29.87 in 10.0 mi West 12.7 mph - N/A   Clear
2:14 AM 60.8 °F 50.0 °F 68% 29.87 in 10.0 mi West 11.5 mph - N/A   Clear
2:34 AM 59.0 °F 51.8 °F 77% 29.88 in 10.0 mi West 12.7 mph - N/A   Clear
2:54 AM 59.0 °F 51.8 °F 77% 29.88 in 10.0 mi West 12.7 mph 19.6 mph N/A   Clear
3:14 AM 57.2 °F 51.8 °F 82% 29.88 in 10.0 mi West 10.4 mph - N/A   Clear
3:34 AM 57.2 °F 50.0 °F 77% 29.89 in 10.0 mi West 10.4 mph - N/A   Clear
3:54 AM 57.2 °F 51.8 °F 82% 29.90 in 10.0 mi West 9.2 mph - N/A   Clear
4:14 AM 57.2 °F 51.8 °F 82% 29.91 in 10.0 mi West 9.2 mph - N/A   Clear
4:34 AM 57.2 °F 51.8 °F 82% 29.91 in 10.0 mi West 8.1 mph - N/A   Clear
4:54 AM 57.2 °F 51.8 °F 82% 29.91 in 10.0 mi West 9.2 mph - N/A   Clear
5:14 AM 57.2 °F 51.8 °F 82% 29.90 in 10.0 mi West 9.2 mph - N/A   Clear
5:34 AM 55.4 °F 51.8 °F 88% 29.91 in 10.0 mi West 6.9 mph - N/A   Clear
5:54 AM 57.2 °F 51.8 °F 82% 29.92 in 10.0 mi West 6.9 mph - N/A   Clear
6:14 AM 57.2 °F 51.8 °F 82% 29.92 in 10.0 mi West 6.9 mph - N/A   Clear
6:34 AM 59.0 °F 53.6 °F 82% 29.92 in 10.0 mi WSW 5.8 mph - N/A   Clear
6:54 AM 59.0 °F 53.6 °F 82% 29.93 in 10.0 mi West 8.1 mph - N/A   Clear
7:45 AM 62.6 °F 53.6 °F 72% 29.94 in 10.0 mi West 10.4 mph - N/A   Clear
8:45 AM 66.2 °F 55.4 °F 68% 29.95 in 10.0 mi West 11.5 mph 17.3 mph N/A   Clear
9:45 AM 68.0 °F 55.4 °F 64% 29.96 in 10.0 mi WSW 11.5 mph 17.3 mph N/A   Clear
10:50 AM 69.8 °F 55.4 °F 60% 29.97 in 10.0 mi WSW 9.2 mph 16.1 mph N/A   Scattered Clouds
11:45 AM 71.6 °F 55.4 °F 57% 29.97 in 10.0 mi WSW 12.7 mph 18.4 mph N/A   Scattered Clouds
12:45 PM 73.4 °F 53.6 °F 50% 29.93 in 10.0 mi WSW 12.7 mph 18.4 mph N/A   Scattered Clouds
1:45 PM 75.2 °F 50.0 °F 41% 29.92 in 10.0 mi WSW 10.4 mph 17.3 mph N/A   Scattered Clouds
2:45 PM 75.2 °F 50.0 °F 41% 29.92 in 10.0 mi WSW 13.8 mph - N/A   Scattered Clouds
3:45 PM 75.2 °F 50.0 °F 41% 29.90 in 10.0 mi WSW 10.4 mph 17.3 mph N/A   Overcast
4:45 PM 75.2 °F 51.8 °F 44% 29.90 in 10.0 mi WSW 10.4 mph - N/A   Mostly Cloudy
5:45 PM 73.4 °F 51.8 °F 47% 29.89 in 10.0 mi WSW 10.4 mph - N/A   Mostly Cloudy
6:45 PM 73.4 °F 53.6 °F 50% 29.86 in 10.0 mi WSW 6.9 mph - N/A   Scattered Clouds
7:45 PM 73.4 °F 53.6 °F 50% 29.85 in 10.0 mi WSW 6.9 mph - N/A   Scattered Clouds
8:45 PM 69.8 °F 55.4 °F 60% 29.85 in 10.0 mi Calm Calm - N/A   Scattered Clouds
9:13 PM 66.2 °F 57.2 °F 73% 29.86 in 10.0 mi South 3.5 mph - N/A   Clear
9:34 PM 66.2 °F 57.2 °F 73% 29.86 in 10.0 mi Calm Calm - N/A   Clear
9:45 PM 66.2 °F 57.2 °F 73% 29.87 in 10.0 mi Calm Calm - N/A   Scattered Clouds
10:14 PM 66.2 °F 57.2 °F 73% 29.89 in 10.0 mi Calm Calm - N/A   Clear
10:54 PM 64.4 °F 59.0 °F 83% 29.88 in 10.0 mi Calm Calm - N/A   Clear
11:14 PM 64.4 °F 57.2 °F 77% 29.87 in 10.0 mi Calm Calm - N/A   Clear
11:34 PM 62.6 °F 59.0 °F 88% 29.86 in 10.0 mi Calm Calm - N/A   Clear